Home   Weather   Lansing   Past weeks

Flag for USA Past Weather in Lansing, Michigan, USA — Yesterday and Last 2 Weeks

Now
48 °F

Clear.


Feels Like: 44 °F
Forecast: 39 / 56 °F
Wind: 8 mph from Northeast

Location: Capital City Airport

Current Time: Feb 23, 2017 at 8:44:51 pm

Latest Report: Feb 23, 2017 at 7:53 pm


Visibility: 10 mi

Pressure: 29.82 "Hg

Humidity: 68%

Dew Point: 38 °F

Location of LansingLocation

Past Weather in Lansing — Graph

°F

Lansing Temperature Yesterday

Maximum temperature yesterday: 62 °F (at 12:01 pm)
Minimum temperature yesterday: 41 °F (at 2:25 am)
Average temperature yesterday: 51 °F

High & Low Weather Summary for the Past Weeks

 TemperatureHumidityPressure
High65 °F (Feb 18, 2:53 pm)93% (Feb 21, 9:29 pm)30.31 "Hg (Feb 21, 9:29 pm)
Low13 °F (Feb 9, 10:53 pm)30% (Feb 19, 3:53 pm)29.60 "Hg (Feb 23, 3:53 am)
Average39 °F67%29.91 "Hg
* Reported Feb 8 6:53 pm — Feb 23 6:53 pm, Lansing, Weather by CustomWeather, © 2017

Note: Actual official high and low records may vary slightly from our data, if they occured in-between our weather recording intervals... More about our weather records

Advertising

Lansing Weather History for the Previous 24 Hours

Scroll right to see more
 ConditionsComfort  
Time TempWeatherWind HumidityBarometerVisibility
6:53 pm
Thu, Feb 23
49 °FClear.5 mph66%29.82 "Hg10 mi
5:53 pm50 °FSunny.7 mph63%29.80 "Hg10 mi
4:53 pm52 °FSunny.7 mph61%29.80 "Hg10 mi
3:53 pm53 °FPassing clouds.8 mph61%29.82 "Hg10 mi
3:22 pm54 °FOvercast.8 mph59%29.81 "Hg10 mi
2:53 pm54 °FOvercast.9 mph59%29.80 "Hg10 mi
2:31 pm55 °FPartly sunny.8 mph59%29.79 "Hg10 mi
1:53 pm55 °FPassing clouds.9 mph57%29.77 "Hg9 mi
12:53 pm54 °FScattered clouds.6 mph64%29.76 "Hg9 mi
12:27 pm55 °FPartly sunny.8 mph64%29.77 "Hg9 mi
11:53 am54 °FPassing clouds.12 mph64%29.77 "Hg9 mi
10:53 am54 °FSunny.10 mph67%29.75 "Hg10 mi
9:53 am53 °FSunny.12 mph66%29.73 "Hg10 mi
8:53 am52 °FSunny.12 mph72%29.70 "Hg10 mi
7:53 am52 °FSunny.10 mph77%29.69 "Hg9 mi
6:53 am53 °FClear.10 mph80%29.66 "Hg9 mi
5:53 am56 °FPassing clouds.16 mph77%29.64 "Hg9 mi
5:11 am56 °FPassing clouds.13 mph81%29.63 "Hg9 mi
4:53 am57 °FPassing clouds.13 mph81%29.62 "Hg9 mi
4:27 am57 °FPassing clouds.16 mph81%29.61 "Hg9 mi
3:53 am57 °FPassing clouds.15 mph81%29.60 "Hg9 mi
3:06 am58 °FPassing clouds.17 mph81%29.60 "Hg9 mi
1:53 am58 °FPassing clouds.15 mph81%29.61 "Hg8 mi
12:53 am57 °FPassing clouds.17 mph83%29.61 "Hg7 mi
11:53 pm
Wed, Feb 22
56 °FPassing clouds.15 mph84%29.63 "Hg8 mi
10:53 pm56 °FClear.14 mph81%29.65 "Hg9 mi
9:53 pm56 °FClear.13 mph81%29.65 "Hg9 mi
8:53 pm57 °FClear.15 mph81%29.66 "Hg8 mi
Weather by CustomWeather, © 2017

See weather overviewHow to use our weather pages